Date String (YYYY-MM-DD hh:mm:ss) UTC,Instrument flags,absolute air pressure of the measurement (hPa),sample flow rate (lpm),inlet stack bypass flow (lpm),air temperature of the measurement (°C),ambient temperature measured by the external sensor (°C),aerosol sample conditioner tube jacket temperature (°C),OPC LED temperature (°C),internal box temperature (°C),relative humidity of the measurement (%),span deviation,mass concentration of particles derived from Lorenz-Mie calculation of OPC scattering (μg/m³),mass concentration of particles derived from Lorenz-Mie calculation of OPC scattering (μg/m³),mass concentration of particles derived from Lorenz-Mie calculation of OPC scattering (μg/m³)
DateTimeUTC,F1_M11,P_M11,Q1_M11,Q2_M11,T1_M11,T2_M11,T3_M11,T4_M11,T5_M11,U1_M11,ZSPAN_M11,X0_M11,X2_M11,X1_M11
2024-03-24 08:00:00,SystemResetWarning,0811.7,5.00,000.00,023.5,022.5,000.0,032.2,025.4,21.2,0002.5,0016.87,0008.30,0006.68
2024-03-24 08:01:00,SystemResetWarning,0811.7,5.01,000.00,023.5,022.5,000.0,032.2,025.3,21.2,0002.2,0017.42,0008.29,0006.69
2024-03-24 08:02:00,SystemResetWarning,0811.8,5.01,000.00,023.5,022.5,000.0,032.2,025.3,21.2,0002.5,0018.30,0008.36,0006.73
2024-03-24 08:03:00,SystemResetWarning,0811.8,5.00,000.00,023.5,022.5,000.0,032.2,025.3,21.2,0002.2,0018.57,0008.45,0006.77
2024-03-24 08:04:00,SystemResetWarning,0811.8,5.00,000.00,023.5,022.5,000.0,032.2,025.3,21.2,0002.0,0020.48,0008.53,0006.78
2024-03-24 08:05:00,SystemResetWarning,0811.8,5.00,000.00,023.5,022.6,000.0,032.2,025.3,21.1,0001.8,0021.06,0008.52,0006.79
2024-03-24 08:06:00,SystemResetWarning,0811.8,5.00,000.00,023.5,022.6,000.0,032.2,025.3,20.8,0001.9,0021.85,0008.51,0006.78
2024-03-24 08:07:00,SystemResetWarning,0811.8,4.99,000.00,023.4,022.6,000.0,032.1,025.3,20.6,0001.5,0021.54,0008.42,0006.72
2024-03-24 08:08:00,SystemResetWarning,0811.8,4.99,000.00,023.4,022.6,000.0,032.1,025.3,20.2,0000.6,0021.99,0008.32,0006.62
2024-03-24 08:09:00,SystemResetWarning,0811.8,5.01,000.00,023.4,022.6,000.0,032.1,025.3,20.2,0000.7,0021.73,0008.24,0006.52
2024-03-24 08:10:00,SystemResetWarning,0811.8,5.01,000.00,023.4,022.6,000.0,032.1,025.3,20.4,0001.6,0022.48,0008.19,0006.48
2024-03-24 08:11:00,SystemResetWarning,0811.8,4.99,000.00,023.4,022.6,000.0,032.1,025.3,20.4,0001.5,0022.83,0008.10,0006.44
2024-03-24 08:12:00,SystemResetWarning,0811.8,4.99,000.00,023.4,022.6,000.0,032.1,025.3,20.3,0000.4,0022.94,0008.11,0006.40
2024-03-24 08:13:00,SystemResetWarning,0811.8,4.99,000.00,023.4,022.6,000.0,032.1,025.3,20.4,0000.2,0023.63,0008.03,0006.35
2024-03-24 08:14:00,SystemResetWarning,0811.7,5.01,000.00,023.4,022.6,000.0,032.1,025.3,20.5,0000.4,0023.59,0007.93,0006.30
2024-03-24 08:15:00,SystemResetWarning,0811.6,5.01,000.00,023.4,022.6,000.0,032.1,025.3,20.6,0000.2,0022.40,0007.85,0006.27
2024-03-24 08:16:00,SystemResetWarning,0811.6,4.99,000.00,023.4,022.6,000.0,032.1,025.3,20.6,0000.1,0021.88,0007.78,0006.22
2024-03-24 08:17:00,SystemResetWarning,0811.7,5.00,000.00,023.4,022.6,000.0,032.1,025.3,20.7,0000.4,0020.92,0007.73,0006.22
2024-03-24 08:18:00,SystemResetWarning,0811.6,5.00,000.00,023.4,022.6,000.0,032.1,025.3,20.8,0001.2,0021.27,0007.77,0006.24
2024-03-24 08:19:00,SystemResetWarning,0811.7,5.00,000.00,023.4,022.6,000.0,032.1,025.2,20.7,0001.1,0021.66,0007.93,0006.32
2024-03-24 08:20:00,SystemResetWarning,0811.6,5.01,000.00,023.4,022.6,000.0,032.0,025.2,20.8,0001.0,0021.98,0007.95,0006.38
2024-03-24 08:21:00,SystemResetWarning,0811.6,4.99,000.00,023.4,022.6,000.0,032.0,025.2,20.9,0000.6,0020.76,0007.94,0006.40
2024-03-24 08:22:00,SystemResetWarning,0811.6,4.99,000.00,023.4,022.6,000.0,032.0,025.2,21.0,0001.1,0020.48,0008.00,0006.43
2024-03-24 08:23:00,SystemResetWarning,0811.7,4.99,000.00,023.3,022.6,000.0,032.0,025.2,21.0,0001.9,0020.06,0008.05,0006.49
2024-03-24 08:24:00,SystemResetWarning,0811.7,5.00,000.00,023.3,022.5,000.0,032.0,025.2,21.1,0000.7,0018.84,0008.09,0006.53
2024-03-24 08:25:00,SystemResetWarning,0811.7,5.01,000.00,023.3,022.5,000.0,032.0,025.2,21.1,0000.0,0019.32,0008.16,0006.57
2024-03-24 08:26:00,SystemResetWarning,0811.7,5.00,000.00,023.3,022.5,000.0,032.0,025.2,21.2,0000.0,0020.52,0008.21,0006.61
2024-03-24 08:27:00,SystemResetWarning,0811.6,4.99,000.00,023.3,022.5,000.0,032.0,025.2,21.2,0000.4,0021.70,0008.25,0006.66
2024-03-24 08:28:00,SystemResetWarning,0811.6,4.99,000.00,023.3,022.5,000.0,032.0,025.2,21.3,0002.1,0022.08,0008.31,0006.71
2024-03-24 08:29:00,SystemResetWarning,0811.6,5.00,000.00,023.3,022.5,000.0,032.0,025.2,21.4,0001.9,0021.56,0008.38,0006.76
2024-03-24 08:30:00,SystemResetWarning,0811.6,5.01,000.00,023.3,022.5,000.0,032.0,025.2,21.4,0002.1,0021.16,0008.40,0006.80
2024-03-24 08:31:00,SystemResetWarning,0811.6,5.00,000.00,023.3,022.5,000.0,032.0,025.2,21.4,0000.5,0022.25,0008.48,0006.85
2024-03-24 08:32:00,SystemResetWarning,0811.7,4.99,000.00,023.3,022.5,000.0,032.0,025.2,21.5,0002.6,0022.42,0008.53,0006.90
2024-03-24 08:33:00,SystemResetWarning,0811.6,5.00,000.00,023.3,022.5,000.0,032.0,025.2,21.4,0002.3,0022.59,0008.56,0006.90
2024-03-24 08:34:00,SystemResetWarning,0811.6,5.00,000.00,023.3,022.5,000.0,032.0,025.2,21.3,0002.1,0024.57,0008.55,0006.91
2024-03-24 08:35:00,SystemResetWarning,0811.6,5.01,000.00,023.3,022.5,000.0,032.0,025.2,21.1,0002.1,0024.75,0008.56,0006.91
2024-03-24 08:36:00,SystemResetWarning,0811.6,5.01,000.00,023.3,022.5,000.0,032.0,025.2,20.9,0002.2,0024.86,0008.56,0006.89
2024-03-24 08:37:00,SystemResetWarning,0811.6,5.00,000.00,023.3,022.5,000.0,032.0,025.2,20.9,0002.3,0024.23,0008.54,0006.87
2024-03-24 08:38:00,SystemResetWarning,0811.6,5.00,000.00,023.3,022.5,000.0,032.0,025.2,20.8,0002.2,0023.25,0008.49,0006.80
2024-03-24 08:39:00,SystemResetWarning,0811.6,5.00,000.00,023.3,022.5,000.0,031.9,025.1,20.6,0002.1,0023.95,0008.44,0006.71
2024-03-24 08:40:00,SystemResetWarning,0811.6,5.00,000.00,023.3,022.5,000.0,031.9,025.1,20.4,0001.8,0025.03,0008.34,0006.60
2024-03-24 08:41:00,SystemResetWarning,0811.5,4.99,000.00,023.3,022.4,000.0,031.9,025.1,20.1,0001.6,0024.96,0008.19,0006.48
2024-03-24 08:42:00,SystemResetWarning,0811.5,5.00,000.00,023.2,022.4,000.0,031.9,025.1,19.8,0001.5,0024.37,0007.93,0006.30
2024-03-24 08:43:00,SystemResetWarning,0811.5,5.00,000.00,023.2,022.4,000.0,031.9,025.1,19.5,0001.8,0025.07,0007.75,0006.11
2024-03-24 08:44:00,SystemResetWarning,0811.4,5.01,000.00,023.2,022.4,000.0,031.9,025.1,19.3,0002.0,0024.29,0007.58,0005.96
2024-03-24 08:45:00,SystemResetWarning,0811.3,5.01,000.00,023.2,022.4,000.0,031.9,025.1,19.1,0002.3,0022.11,0007.42,0005.80
2024-03-24 08:46:00,SystemResetWarning,0811.3,5.01,000.00,023.2,022.4,000.0,031.9,025.1,18.8,0002.5,0020.89,0007.25,0005.66
2024-03-24 08:47:00,SystemResetWarning,0811.3,5.00,000.00,023.2,022.4,000.0,031.9,025.1,18.8,0002.3,0021.09,0007.10,0005.50
2024-03-24 08:48:00,SystemResetWarning,0811.3,5.00,000.00,023.2,022.4,000.0,031.9,025.1,19.1,0002.6,0020.88,0006.94,0005.36
2024-03-24 08:49:00,SystemResetWarning,0811.3,5.00,000.00,023.2,022.4,000.0,031.9,025.1,19.2,0003.0,0021.08,0006.82,0005.25
2024-03-24 08:50:00,SystemResetWarning,0811.2,5.00,000.00,023.2,022.4,000.0,031.9,025.1,19.4,0003.5,0021.15,0006.74,0005.18
2024-03-24 08:51:00,SystemResetWarning,0811.1,5.00,000.00,023.2,022.4,000.0,031.9,025.1,19.7,0003.9,0019.06,0006.66,0005.15
2024-03-24 08:52:00,SystemResetWarning,0811.2,5.00,000.00,023.2,022.4,000.0,031.9,025.1,19.9,0001.2,0019.93,0006.69,0005.18
2024-03-24 08:53:00,SystemResetWarning,0811.1,5.00,000.00,023.2,022.4,000.0,031.9,025.1,20.0,0000.0,0020.43,0006.79,0005.22
2024-03-24 08:54:00,SystemResetWarning,0811.1,4.99,000.00,023.2,022.3,000.0,031.9,025.1,20.0,0000.0,0019.08,0006.83,0005.26
2024-03-24 08:55:00,SystemResetWarning,0811.1,4.99,000.00,023.2,022.3,000.0,031.9,025.1,20.0,0000.0,0019.34,0006.88,0005.31
2024-03-24 08:56:00,SystemResetWarning,0811.1,5.00,000.00,023.2,022.3,000.0,031.9,025.0,19.9,0000.0,0019.57,0006.88,0005.36
2024-03-24 08:57:00,SystemResetWarning,0811.1,5.01,000.00,023.2,022.3,000.0,031.8,025.0,19.9,0000.0,0020.56,0006.96,0005.42
2024-03-24 08:58:00,SystemResetWarning,0811.1,5.01,000.00,023.2,022.3,000.0,031.8,025.0,19.8,0000.0,0020.65,0007.03,0005.48
2024-03-24 08:59:00,SystemResetWarning,0811.1,5.00,000.00,023.2,022.3,000.0,031.8,025.0,19.8,0000.0,0020.01,0007.05,0005.52
